Yenbo, Saudi Arabia

9:47 PM +03 on May 25, 2017 (GMT +0300)
Yenbo

Weather History for OEYN - January, 2013

Change the Weather History Date:

Wednesday, January 23, 2013

  Actual Average Record
Temperature  
Mean Temperature 75 °F -  
Max Temperature 89 °F 82 °F 89 °F (2009)
Min Temperature 61 °F 57 °F 46 °F (2000)
Cooling Degree Days 10    
Growing Degree Days 25 (Base 50)    
Moisture  
Dew Point 57 °F    
Average Humidity 56    
Maximum Humidity 78    
Minimum Humidity 24    
Precipitation  
Precipitation 0.00 in - - ()
Sea Level Pressure  
Sea Level Pressure 29.95 in    
Wind  
Wind Speed 4 mph ()    
Max Wind Speed 16 mph    
Max Gust Speed -    
Visibility 5.9 miles    
Events      
Averages and records for this station are not official NWS values.
T = Trace of Precipitation, MM = Missing Value Source: Averaged Metar Reports

Daily Weather History Graph

Daily Weather History Graph

Search for Another Location

Airport or City:

Trip Planner

Search our weather history database for the weather conditions in past years. The results will help you decide how hot, cold, wet, or windy it might be!

Date:

Astronomy

Jan. 23, 2013 Rise Set
Actual Time 7:11 AM +03 6:07 PM +03
Civil Twilight 6:47 AM +03 6:31 PM +03
Nautical Twilight 6:20 AM +03 6:59 PM +03
Astronomical Twilight 5:53 AM +03 7:26 PM +03
Moon 3:05 PM +03 (1/23) 4:01 AM +03 (1/23)
Length of Visible Light 11h 43m
Length of Day
10h 55m
Waxing Gibbous, 87% of the Moon is Illuminated
Jan 23
Waxing Gibbous
Jan 27
Full
Feb 3
Last Quarter
Feb 10
New
Feb 17
First Quarter

Hourly Weather History & Observations

Time (+03) Temp. Heat Index Dew Point Humidity Pressure Visibility Wind Dir Wind Speed Gust Speed Precip Events Conditions
12:00 AM 68 °F - 61 °F 71% 29.96 in 6 mi NNW 2.3 mph - -  
12:00 AM 68.0 °F - 60.8 °F 78% 29.95 in - NNW 2.3 mph - N/A   Clear
1:00 AM 66.2 °F - 59.0 °F 78% 29.95 in - East 6.9 mph - N/A   Clear
2:00 AM 66.2 °F - 57.2 °F 73% 29.95 in - Calm Calm - N/A   Clear
3:00 AM 63 °F - 54 °F 63% 29.96 in 6 mi NE 2.3 mph - -  
3:00 AM 62.6 °F - 53.6 °F 72% 29.95 in - NE 2.3 mph - N/A   Clear
4:00 AM 62.6 °F - 53.6 °F 72% 29.95 in - NNE 4.6 mph - N/A   Clear
5:00 AM 62.6 °F - 51.8 °F 68% 29.92 in - NNE 6.9 mph - N/A   Clear
6:00 AM 63 °F - 54 °F 63% 29.95 in 6 mi Calm Calm - -  
6:00 AM 62.6 °F - 53.6 °F 72% 29.95 in - Calm Calm - N/A   Clear
7:00 AM 62.6 °F - 50.0 °F 63% 29.95 in - ESE 4.6 mph - N/A   Clear
8:00 AM 62.6 °F - 50.0 °F 63% 29.98 in 5.0 mi East 4.6 mph - N/A   Unknown
9:00 AM 69 °F - 52 °F 44% 30.00 in 5 mi NE 3.5 mph - -   Haze
9:00 AM 68.0 °F - 51.8 °F 56% 29.98 in 5.0 mi NE 3.5 mph - N/A   Unknown
10:00 AM 75.2 °F - 55.4 °F 50% 30.01 in - North 2.3 mph - N/A   Clear
11:00 AM 80.6 °F 80.3 °F 53.6 °F 39% 30.01 in 6.2 mi Calm Calm - N/A   Scattered Clouds
12:00 PM 85 °F - 54 °F 24% 29.98 in 6 mi Calm Calm - -   Scattered Clouds
12:00 PM 84.2 °F 82.8 °F 53.6 °F 35% 29.98 in 6.2 mi Calm Calm - N/A   Scattered Clouds
1:00 PM 86.0 °F 84.5 °F 55.4 °F 35% 29.95 in 6.2 mi Calm Calm - N/A   Scattered Clouds
2:00 PM 87.8 °F 86.5 °F 57.2 °F 35% 29.92 in 6.2 mi WSW 11.5 mph - N/A   Partly Cloudy
3:00 PM 89 °F - 59 °F 26% 29.92 in 6 mi WSW 11.5 mph - -   Scattered Clouds
3:00 PM 89.6 °F 88.9 °F 59.0 °F 36% 29.92 in 6.2 mi WSW 11.5 mph - N/A   Scattered Clouds
4:00 PM 87.8 °F 86.1 °F 55.4 °F 33% 29.92 in - SW 16.1 mph - N/A   Clear
5:00 PM 87.8 °F 86.1 °F 55.4 °F 33% 29.92 in - SW 13.8 mph - N/A   Clear
6:00 PM 84 °F - 55 °F 27% 29.94 in 6 mi WSW 11.5 mph - -   Clear
6:00 PM 84.2 °F 83.0 °F 55.4 °F 37% 29.92 in - WSW 11.5 mph - N/A   Clear
7:00 PM 80.6 °F 82.3 °F 64.4 °F 58% 29.95 in - West 4.6 mph - N/A   Clear
8:00 PM 77.0 °F - 69.8 °F 78% 29.95 in - West 2.3 mph - N/A   Clear
9:00 PM 75 °F - 68 °F 73% 29.97 in 6 mi WSW 6.9 mph - -  
9:00 PM 75.2 °F - 68.0 °F 78% 29.95 in - WSW 6.9 mph - N/A   Clear
10:00 PM 75.2 °F - 68.0 °F 78% 29.95 in - West 2.3 mph - N/A   Clear
11:00 PM 75.2 °F - 68.0 °F 78% 29.95 in - West 6.9 mph - N/A   Clear